User: anonymous   Login
Location: Deer Path Park
(40.5570°N, 74.8450°W)
Time: 23:18:10
(UTC-04:00)
Language:

Iridium 49 - Orbit

View from above orbital plane
View from above orbital plane
View from above satellite
View from above satellite

Ground track
Ground track

The orbit data is extracted from the following two-line orbital elements,

1 25108U 97082E   17086.62482729 -.00000049 +00000-0 -24696-4 0  9990
2 25108 086.3916 289.5040 0001885 084.3572 335.7977 14.34216658008425
Epoch (UTC): 27 March 2017 14:59:45
Eccentricity: 0.0001885
inclination: 86.3916°
perigee height: 776 km
apogee height: 779 km
right ascension of ascending node: 289.5040°
argument of perigee: 84.3572°
revolutions per day: 14.34216658
mean anomaly at epoch: 335.7977°
orbit number at epoch: 842

The dashed part of the orbit path shows where the satellite is in the earth's shadow,  

DLR